CW4198 Weather Reports


time (UTC)temp
C
wind
direction
speed
KPH
gust
KPH
rain 1hr
cm
rain 24hr
cm
rain mn
cm
humidity
%
barometer
mb
20190618171835 25 201 17.7 20.9 0.00 0.00 0.00 22 1010.8
20190618165835 25 215 8.0 24.1 0.00 0.00 0.00 23 1010.8
20190618163743 25 230 17.7 19.3 0.00 0.00 0.00 23 1010.8
20190618162742 25 199 16.1 24.1 0.00 0.00 0.00 24 1010.8
20190618161742 25 208 30.6 30.6 0.00 0.00 0.00 24 1010.8
20190618154742 25 263 11.3 35.4 0.00 0.00 0.00 24 1010.8
20190618150743 25 200 11.3 20.9 0.00 0.00 0.00 26 1010.8
20190618145742 25 235 16.1 24.1 0.00 0.00 0.00 27 1010.8
20190618143742 25 189 20.9 22.5 0.00 0.00 0.00 28 1010.8
20190618142742 25 208 20.9 24.1 0.00 0.00 0.00 28 1010.8
20190618141742 24 208 14.5 20.9 0.00 0.00 0.00 29 1010.8
20190618134742 23 220 8.0 24.1 0.00 0.00 0.00 38 1011.8
20190618131742 21 206 20.9 24.1 0.00 0.00 0.00 52 1011.8
20190618130742 20 214 16.1 16.1 0.00 0.00 0.00 61 1011.8
20190618120742 22 211 12.9 16.1 0.00 0.00 0.00 42 1011.8
20190618115742 21 198 8.0 17.7 0.00 0.00 0.00 43 1011.8
20190618113742 21 189 11.3 17.7 0.00 0.00 0.00 46 1011.8
20190618112742 21 168 11.3 20.9 0.00 0.00 0.00 45 1011.8
20190618111742 21 247 12.9 20.9 0.00 0.00 0.00 47 1011.8
20190618110742 20 213 11.3 16.1 0.00 0.00 0.00 61 1011.8
20190618103816 19 205 8.0 20.9 0.00 0.00 0.00 79 1012.8
20190618102816 18 192 8.0 16.1 0.00 0.00 0.00 82 1012.8
20190618095816 16 183 0.0 11.3 0.00 0.00 0.00 86 1012.8
20190618093816 16 166 6.4 14.5 0.00 0.00 0.00 85 1011.8
20190618091816 15 172 8.0 9.7 0.00 0.00 0.00 84 1011.8
20190618082816 15 176 8.0 16.1 0.00 0.00 0.00 81 1011.8
20190618074816 16 168 8.0 11.3 0.00 0.00 0.00 73 1011.8
20190618065815 15 177 8.0 14.5 0.00 0.00 0.00 73 1011.8
20190618064816 15 201 11.3 16.1 0.00 0.00 0.00 74 1011.8
20190618063815 15 170 11.3 14.5 0.00 0.00 0.00 75 1011.8
20190618062815 15 151 11.3 12.9 0.00 0.00 0.00 76 1011.8
20190618054815 13 173 4.8 8.0 0.00 0.00 0.00 75 1011.8
20190618050745 13 178 4.8 11.3 0.00 0.00 0.00 74 1011.8
20190618045745 13 152 4.8 4.8 0.00 0.00 0.00 73 1011.8
20190618041744 12 165 4.8 8.0 0.00 0.00 0.00 71 1011.8
20190618035746 12 167 4.8 4.8 0.00 0.00 0.00 68 1011.8
20190618033746 12 166 8.0 11.3 0.00 0.00 0.00 64 1010.8
20190618024746 12 173 3.2 8.0 0.00 0.00 0.00 52 1010.8
20190618022746 12 152 3.2 8.0 0.00 0.00 0.00 49 1010.8
20190618021746 12 166 8.0 12.9 0.00 0.00 0.00 48 1011.8
20190618014746 13 192 0.0 0.0 0.00 0.00 0.00 45 1011.8
20190618012746 13 172 4.8 8.0 0.00 0.00 0.00 42 1011.8
20190618011746 13 187 8.0 9.7 0.00 0.00 0.00 39 1011.8
20190618005746 13 194 3.2 8.0 0.00 0.00 0.00 35 1011.8
20190618004746 14 181 8.0 11.3 0.00 0.00 0.00 34 1011.8
20190618003746 14 224 3.2 8.0 0.00 0.00 0.00 32 1011.8
20190618002746 15 192 8.0 11.3 0.00 0.00 0.00 30 1011.8
20190618001746 15 213 4.8 11.3 0.00 0.00 0.00 27 1011.8
20190617235746 15 194 4.8 8.0 0.00 0.00 0.00 25 1011.8
20190617234746 16 221 4.8 8.0 0.00 0.00 0.00 25 1011.8
20190617232746 16 197 8.0 8.0 0.00 0.00 0.00 24 1011.8
20190617225745 17 204 6.4 11.3 0.00 0.00 0.00 24 1011.8
20190617223745 18 204 4.8 16.1 0.00 0.00 0.00 23 1011.8
20190617221745 18 179 4.8 8.0 0.00 0.00 0.00 24 1011.8
20190617215747 19 185 0.0 0.0 0.00 0.00 0.00 23 1011.8
20190617214747 20 209 0.0 0.0 0.00 0.00 0.00 23 1011.8
20190617213747 20 209 0.0 0.0 0.00 0.00 0.00 23 1011.8
20190617212747 20 213 0.0 0.0 0.00 0.00 0.00 23 1011.8
20190617211747 20 225 0.0 0.0 0.00 0.00 0.00 23 1011.8
20190617205747 21 233 0.0 0.0 0.00 0.00 0.00 22 1011.8
20190617204747 21 236 0.0 0.0 0.00 0.00 0.00 22 1011.8
20190617202747 21 276 0.0 8.0 0.00 0.00 0.00 22 1010.8
20190617201746 22 244 8.0 8.0 0.00 0.00 0.00 22 1010.8
20190617195747 23 246 8.0 12.9 0.00 0.00 0.00 21 1010.8
20190617192746 24 225 11.3 12.9 0.00 0.00 0.00 21 1010.8
20190617191746 25 253 12.9 12.9 0.00 0.00 0.00 21 1010.8
20190617190746 25 232 4.8 8.0 0.00 0.00 0.00 21 1010.8
20190617184746 25 262 4.8 11.3 0.00 0.00 0.00 20 1010.8
20190617183746 25 126 8.0 12.9 0.00 0.00 0.00 20 1010.8
20190617182746 25 206 3.2 8.0 0.00 0.00 0.00 18 1010.8
20190617181746 26 231 4.8 8.0 0.00 0.00 0.00 18 1010.8
20190617175746 26 196 6.4 11.3 0.00 0.00 0.00 17 1010.8